Flag Weather past 2 weeks in Saint John's, Antigua and Barbuda

Now
81 °F

Passing clouds.


Feels Like: 85 °F
Forecast: 79 / 84 °F
Wind: 13 mph from East

Location: Vc Bird International Antigua Airport

Current Time: Nov 23, 2014 at 9:39:37 PM

Latest Report: Nov 23, 2014 at 9:00 PM


Visibility: N/A

Pressure: 30.01 "Hg

Humidity: 74%

Dew point: 72 °F

Location of Saint John'sLocation

Historic Weather in Saint John's — Graph

°F

Saint John's temperature yesterday

Maximum temperature yesterday: 82 °F (at 11:00 AM)
Minimum temperature yesterday: 75 °F (at 12:18 AM)
Average temperature yesterday: 79 °F

Past Weeks' High & Low Weather Summary

 TemperatureHumidityPressure
High86 °F (Nov 9, 11:00 AM)94% (Nov 14, 2:00 AM)30.07 "Hg (Nov 14, 2:00 AM)
Low73 °F (Nov 21, 5:00 AM)62% (Nov 20, 11:00 AM)29.86 "Hg (Nov 11, 2:00 PM)
Average81 °F78%29.95 "Hg
* Reported Nov 8 8:00 PM — Nov 23 8:00 PM, Saint John's, Weather by CustomWeather, © 2014

Note: Actual official high and low records may vary slightly from our data, if they occured in-between our weather recording intervals... More about our weather records

Advertising

Saint John's weather history for previous 24 hours

 ConditionsComfort  
Time TempWeatherWind HumidityBarometerVisibility
8:00 PM
Nov 23
81 °FPassing clouds.14 mph74%30.01 "HgN/A
7:00 PM81 °FPassing clouds.12 mph74%29.98 "HgN/A
6:00 PM81 °FPassing clouds.13 mph74%29.98 "HgN/A
5:00 PM81 °FScattered clouds.14 mph79%29.98 "HgN/A
4:00 PM81 °FScattered clouds.15 mph79%29.95 "HgN/A
3:00 PM82 °FScattered clouds.15 mph74%29.98 "HgN/A
2:00 PM82 °FBroken clouds.14 mph70%29.98 "HgN/A
1:00 PM81 °FBroken clouds.14 mph79%30.01 "HgN/A
12:00 PM79 °FSprinkles. Broken clouds.14 mph79%30.04 "HgN/A
11:00 AM82 °FPartly sunny.16 mph74%30.04 "HgN/A
10:00 AM79 °FPartly sunny.14 mph79%30.04 "HgN/A
9:00 AM81 °FScattered clouds.17 mph74%30.04 "HgN/A
8:00 AM81 °FScattered clouds.14 mph74%30.01 "HgN/A
7:00 AM79 °FScattered clouds.13 mph79%29.98 "HgN/A
6:00 AM81 °FPassing clouds.14 mph70%29.95 "HgN/A
5:00 AM81 °FPassing clouds.15 mph74%29.95 "HgN/A
4:00 AM79 °FPassing clouds.15 mph79%29.95 "HgN/A
3:00 AM79 °FPassing clouds.14 mph84%29.95 "HgN/A
2:00 AM77 °FPassing clouds.15 mph83%29.98 "HgN/A
1:00 AM81 °FSprinkles. Passing clouds.15 mph74%29.98 "HgN/A
12:00 AM81 °FPassing clouds.13 mph74%30.01 "HgN/A
11:00 PM
Nov 22
81 °FPassing clouds.13 mph74%30.01 "HgN/A
10:00 PM81 °FPassing clouds.14 mph74%30.01 "HgN/A
9:00 PM81 °FPassing clouds.13 mph74%30.01 "HgN/A
Weather by CustomWeather, © 2014

See weather overviewHow to use our weather pages